Time,TemperatureF,DewpointF,PressureIn,WindDirection,WindDirectionDegrees,WindSpeedMPH,WindSpeedGustMPH,Humidity,HourlyPrecipIn,Conditions,Clouds,dailyrainin,SoftwareType,DateUTC
2013-01-10 00:02:00,33.0,24.0,30.37,ESE,109,2.0,3.0,70,0.00,,,0.00,,2013-01-10 06:02:00,
2013-01-10 00:12:00,33.0,24.0,30.37,ESE,109,2.0,3.0,70,0.00,,,0.00,,2013-01-10 06:12:00,
2013-01-10 00:22:00,33.0,24.0,30.37,ESE,109,2.0,3.0,70,0.00,,,0.00,,2013-01-10 06:22:00,
2013-01-10 01:52:00,30.0,21.0,30.37,ESE,121,0.0,0.0,68,0.00,,,0.00,,2013-01-10 07:52:00,
2013-01-10 02:02:00,30.0,21.0,30.37,ESE,121,0.0,0.0,68,0.00,,,0.00,,2013-01-10 08:02:00,
2013-01-10 02:12:00,30.0,21.0,30.37,ESE,121,0.0,0.0,68,0.00,,,0.00,,2013-01-10 08:12:00,
2013-01-10 02:22:00,30.0,21.0,30.37,ESE,121,0.0,0.0,68,0.00,,,0.00,,2013-01-10 08:22:00,
2013-01-10 05:53:00,29.0,22.0,30.28,ESE,118,0.0,0.0,74,0.00,,,0.00,,2013-01-10 11:53:00,
2013-01-10 06:03:00,29.0,22.0,30.28,ESE,118,0.0,0.0,74,0.00,,,0.00,,2013-01-10 12:03:00,
2013-01-10 06:12:00,29.0,22.0,30.28,ESE,118,0.0,0.0,74,0.00,,,0.00,,2013-01-10 12:12:00,
2013-01-10 06:22:00,29.0,22.0,30.28,ESE,118,0.0,0.0,74,0.00,,,0.00,,2013-01-10 12:22:00,
2013-01-10 07:53:00,32.0,23.0,30.25,ESE,103,0.0,2.0,70,0.00,,,0.00,,2013-01-10 13:53:00,
2013-01-10 08:02:00,32.0,23.0,30.25,ESE,103,0.0,2.0,70,0.00,,,0.00,,2013-01-10 14:02:00,
2013-01-10 08:12:00,32.0,23.0,30.25,ESE,103,0.0,2.0,70,0.00,,,0.00,,2013-01-10 14:12:00,
2013-01-10 08:22:00,32.0,23.0,30.25,ESE,103,0.0,2.0,70,0.00,,,0.00,,2013-01-10 14:22:00,
2013-01-10 09:53:00,34.0,25.0,30.19,SE,136,3.0,5.0,68,0.00,,,0.00,,2013-01-10 15:53:00,
2013-01-10 10:03:00,34.0,25.0,30.19,SE,136,3.0,5.0,68,0.00,,,0.00,,2013-01-10 16:03:00,
2013-01-10 10:13:00,34.0,25.0,30.19,SE,136,3.0,5.0,68,0.00,,,0.00,,2013-01-10 16:13:00,
2013-01-10 10:23:00,34.0,25.0,30.19,SE,136,3.0,5.0,68,0.00,,,0.00,,2013-01-10 16:23:00,
2013-01-10 11:53:00,40.0,18.0,30.07,SE,132,0.0,6.0,41,0.00,,,0.00,,2013-01-10 17:53:00,
2013-01-10 12:03:00,40.0,18.0,30.07,SE,132,0.0,6.0,41,0.00,,,0.00,,2013-01-10 18:03:00,
2013-01-10 12:12:00,40.0,18.0,30.07,SE,132,0.0,6.0,41,0.00,,,0.00,,2013-01-10 18:12:00,
2013-01-10 12:23:00,40.0,18.0,30.07,SE,132,0.0,6.0,41,0.00,,,0.00,,2013-01-10 18:23:00,
2013-01-10 13:53:00,40.0,19.0,29.95,SE,133,3.0,6.0,42,0.00,,,0.00,,2013-01-10 19:53:00,
2013-01-10 14:03:00,40.0,19.0,29.95,SE,133,3.0,6.0,42,0.00,,,0.00,,2013-01-10 20:03:00,
2013-01-10 14:12:00,40.0,19.0,29.95,SE,133,3.0,6.0,42,0.00,,,0.00,,2013-01-10 20:12:00,
2013-01-10 14:23:00,40.0,19.0,29.95,SE,133,3.0,6.0,42,0.00,,,0.00,,2013-01-10 20:23:00,
2013-01-10 15:53:00,37.0,27.0,29.89,SE,135,3.0,5.0,68,0.00,,,0.00,,2013-01-10 21:53:00,
2013-01-10 16:03:00,37.0,27.0,29.89,SE,135,3.0,5.0,68,0.00,,,0.00,,2013-01-10 22:03:00,
2013-01-10 16:12:00,37.0,27.0,29.89,SE,135,3.0,5.0,68,0.00,,,0.00,,2013-01-10 22:12:00,
2013-01-10 16:25:00,37.0,27.0,29.89,SE,135,3.0,5.0,68,0.00,,,0.00,,2013-01-10 22:25:00,
2013-01-10 17:53:00,36.0,30.0,29.86,South,179,3.0,8.0,79,0.00,,,0.00,,2013-01-10 23:53:00,
2013-01-10 18:03:00,36.0,30.0,29.86,South,179,3.0,8.0,79,0.00,,,0.00,,2013-01-11 00:03:00,
2013-01-10 18:12:00,36.0,30.0,29.86,South,179,3.0,8.0,79,0.00,,,0.00,,2013-01-11 00:12:00,
2013-01-10 18:23:00,36.0,30.0,29.86,South,179,3.0,8.0,79,0.00,,,0.00,,2013-01-11 00:23:00,
2013-01-10 19:53:00,36.0,32.0,29.83,South,188,4.0,6.0,85,0.00,,,0.00,,2013-01-11 01:53:00,
2013-01-10 20:03:00,36.0,32.0,29.83,South,188,4.0,6.0,85,0.00,,,0.00,,2013-01-11 02:03:00,
2013-01-10 20:13:00,36.0,32.0,29.83,South,188,4.0,6.0,85,0.00,,,0.00,,2013-01-11 02:13:00,
2013-01-10 20:23:00,36.0,32.0,29.83,South,188,4.0,6.0,85,0.00,,,0.00,,2013-01-11 02:23:00,
2013-01-10 21:53:00,36.0,33.0,29.78,South,180,2.0,6.0,87,0.00,,,0.00,,2013-01-11 03:53:00,
2013-01-10 22:02:00,36.0,33.0,29.78,South,180,2.0,6.0,87,0.00,,,0.00,,2013-01-11 04:02:00,
2013-01-10 22:12:00,36.0,33.0,29.78,South,180,2.0,6.0,87,0.00,,,0.00,,2013-01-11 04:12:00,
2013-01-10 22:22:00,36.0,33.0,29.78,South,180,2.0,6.0,87,0.00,,,0.00,,2013-01-11 04:22:00,
2013-01-10 23:53:00,36.0,33.0,29.72,East,96,0.0,3.0,88,0.00,,,0.00,,2013-01-11 05:53:00,